(109) Felicitas
ephemeris date magn radius delta ra dec elong phase
Today5 Feb 202513.01.885 AU1.832 AU01h55m+19°25'77.7°30.7°
Opposition27 Mar 202612.92.983 AU1.985 AU12h24m-03°34'179.0°0.3°
(109) Felicitas - 2025-02-05
astro.vanbuitenen.nl


 
-1 year
-1 month
-1 day
Now
+1 day
+1 month
+1 year

The interactive orbit chart above shows the body's path through the solar system and its position at the given date. Green and blue lines are shown perpendicular to the ecliptic plane: Green if the path is above the ecliptic plane, blue if it is below. (Left-click and drag to rotate the view; Right-click and drag to move the view; Use scroll wheel to zoom in our out.)

The orbital elements of Felicitas are:

            e (Eccentricity)                : 0.3004128
            a (Semimajor axis)              : 2.6932420
            i (Inclination)                 : 7.84577
            Ω (Longitude of ascending node) : 2.74670
            ω (Argument of perihelion)      : 57.65486
            M (Mean anomaly)                : 337.51651
            Epoch                           : 2024 Oct 17

            L (Longitude of perihelion)     : 60.15750
            B (Latitude of perihelion)      : 6.62247
            P (Orbital period in years)     : 4.42            
        

The light curve chart below shows the estimated development of the minor planet's magnitude.


The all-sky chart below shows the path of the minor planet over the same period as the light curve. The current position is marked yellow.





The following chart shows the path of the minor planet in the next few days. The field of view is optimized for (~10x50) binoculars and finderscopes. A more printer-friendly version of the same chart can be found below.




Ephemerides:
Date       Time       RA (2000)    DEC (2000)    delta   radius  elong  phase   PA    magn
2025-02-05 00:00 UT   01 55 21.2   +19 25 24     1.832    1.885   77.7   30.7    68   13.0 
2025-02-05 06:38 UT   01 55 54.2   +19 28 10     1.834    1.886   77.5   30.7    68   13.0 
2025-02-06 00:00 UT   01 57 21.0   +19 35 23     1.842    1.886   77.1   30.7    68   13.0 
2025-02-07 00:00 UT   01 59 21.6   +19 45 20     1.852    1.886   76.6   30.6    68   13.0 
2025-02-08 00:00 UT   02 01 23.0   +19 55 17     1.861    1.886   76.1   30.5    68   13.0 
2025-02-09 00:00 UT   02 03 25.2   +20 05 13     1.871    1.887   75.6   30.4    68   13.0 
2025-02-10 00:00 UT   02 05 28.1   +20 15 07     1.881    1.887   75.1   30.4    68   13.1 
2025-02-11 00:00 UT   02 07 31.9   +20 25 00     1.891    1.887   74.7   30.3    68   13.1 
2025-02-12 00:00 UT   02 09 36.4   +20 34 52     1.901    1.888   74.2   30.2    68   13.1 
2025-02-13 00:00 UT   02 11 41.7   +20 44 41     1.911    1.888   73.7   30.1    68   13.1 
2025-02-14 00:00 UT   02 13 47.7   +20 54 29     1.921    1.889   73.2   30.0    68   13.1 
2025-02-15 00:00 UT   02 15 54.4   +21 04 15     1.931    1.889   72.7   29.9    68   13.1 
2025-02-16 00:00 UT   02 18 01.9   +21 13 58     1.941    1.890   72.2   29.9    68   13.1 
2025-02-17 00:00 UT   02 20 10.1   +21 23 40     1.950    1.890   71.7   29.8    69   13.1 
2025-02-18 00:00 UT   02 22 19.0   +21 33 19     1.960    1.891   71.3   29.7    69   13.1 
2025-02-19 00:00 UT   02 24 28.6   +21 42 55     1.970    1.891   70.8   29.6    69   13.1 
2025-02-20 00:00 UT   02 26 39.0   +21 52 28     1.980    1.892   70.3   29.5    69   13.1 
2025-02-21 00:00 UT   02 28 50.0   +22 01 59     1.990    1.893   69.9   29.4    69   13.2 


    Terminology:
            
    delta:  distance between minor planet and earth in AU
    radius: distance between minor planet and sun in AU
    magn:   magnitude (brightness) estimate    
    ra:     right ascension in hours (24h = 360deg)
    dec:    declination in degrees
    elong:  elongation in degrees (angle sun-earth-minor planet)    
    phase:  phase angle in degrees (angle sun-minor planet-earth)        
    AU:     Astronomical Unit (mean distance between earth and sun: 149597870.7 km
    

Orbital elements provided by the MPC (Minor Planet Center).
Calculations by a modified version of AAPlus, a C# implementation of the AA+ project by PJ Naughter from the algorithms presented in the book "Astronomical Algorithms" by Jean Meeus.
NGC2000 dso catalog and star labels from VizieR as provided by the Strasbourg astronomical Data Center.
Tycho2 catalog from the ESO archive.